15min,AgWx,beryljct,423,29MAR2021:00:00:00,38.1,12.82,42.4,40.8,39.8,41.0,37.7,41,45,40,0.343,18.2,18.8,17.0,1.907,1.5,345,17,3.1,-0.00010,-0.00011,47.1,46.4,14,0,0,.,7.81,0.00,0.00
15min,AgWx,beryljct,423,29MAR2021:00:15:00,37.7,12.82,43.3,42.2,39.1,42.2,36.5,42,47,37,0.341,18.2,18.9,17.0,4.341,1.8,6.0,53,4.8,-0.00007,-0.00008,46.9,46.4,14,0,0,.,7.81,0.00,0.00
15min,AgWx,beryljct,423,29MAR2021:00:30:00,37.6,12.82,38.3,36.1,38.1,42.5,35.2,43,48,37,0.338,17.6,18.2,16.5,5.239,3.3,323,31,5.4,0.00006,0.00010,46.6,46.4,14,0,0,.,7.81,0.00,0.00
15min,AgWx,beryljct,423,29MAR2021:00:45:00,36.9,12.81,34.2,36.1,35.4,37.6,32.2,48,54,44,0.330,17.6,18.9,16.5,2.872,3.6,310,16,5.2,0.00005,0.00009,46.3,46.3,14,0,0,.,7.81,0.00,0.00
15min,AgWx,beryljct,423,29MAR2021:01:00:00,36.4,12.8,39.9,39.5,37.9,39.9,35.0,44,49,41,0.341,18.1,19.0,16.9,2.411,2.1,314,42,3.9,-0.00004,-0.00003,46.0,46.3,14,0,0,.,7.82,0.00,0.00
15min,AgWx,beryljct,423,29MAR2021:01:15:00,36.2,12.8,36.0,35.8,37.7,39.6,35.8,44,47,41,0.319,17.8,18.3,16.3,3.179,2.2,325,24,4.1,-0.00003,-0.00001,45.8,46.3,14,0,0,.,7.82,0.00,0.00
15min,AgWx,beryljct,423,29MAR2021:01:30:00,36.0,12.79,38.0,37.3,37.0,39.5,34.0,46,50,41,0.332,17.9,19.1,16.3,2.609,2.7,321,25,4.2,0.00001,0.00003,45.6,46.2,14,0,0,.,7.82,0.00,0.00
15min,AgWx,beryljct,423,29MAR2021:01:45:00,35.8,12.77,34.2,35.5,37.1,39.5,34.6,45,50,41,0.320,17.7,18.4,16.5,0,1.2,321,23,3.2,-0.00012,-0.00015,45.3,46.2,14,0,0,.,7.82,0.00,0.00
15min,AgWx,beryljct,423,29MAR2021:02:00:00,35.6,12.77,38.0,38.2,37.3,39.5,35.0,44,49,41,0.331,17.4,18.3,16.5,2.192,1.8,330,30,3.3,-0.00007,-0.00007,45.1,46.1,14,0,0,.,7.82,0.00,0.00
15min,AgWx,beryljct,423,29MAR2021:02:15:00,35.4,12.75,37.4,36.0,35.8,38.4,33.5,46,51,42,0.330,17.2,17.9,16.5,3.508,3.0,331,49,5.0,0.00002,0.00006,44.8,46.1,14,0,0,.,7.82,0.00,0.00
15min,AgWx,beryljct,423,29MAR2021:02:30:00,35.1,12.74,34.4,35.0,34.7,36.8,32.7,47,50,44,0.322,16.6,17.5,15.8,3.332,3.1,314,32,4.6,0.00002,0.00006,44.6,46.0,14,0,0,.,7.82,0.00,0.00
15min,AgWx,beryljct,423,29MAR2021:02:45:00,34.7,12.74,34.9,35.5,34.3,35.5,33.3,48,50,46,0.332,16.5,17.4,15.5,0.745,2.0,285,39,4.7,-0.00005,-0.00005,44.4,46.0,14,0,0,.,7.82,0.00,0.00
15min,AgWx,beryljct,423,29MAR2021:03:00:00,34.1,12.75,30.6,31.9,34.2,36.1,31.9,49,51,46,0.311,16.9,17.5,15.9,3.551,1.6,178,31,3.6,-0.00009,-0.00010,44.2,45.9,14,0,0,.,7.82,0.00,0.00
15min,AgWx,beryljct,423,29MAR2021:03:15:00,33.7,12.72,44.0,41.5,37.7,42.5,31.3,43,54,35,0.325,16.9,17.9,15.9,5.765,5.0,190,10,6.9,0.00015,0.00021,44.0,45.8,14,0,0,.,7.83,0.00,0.00
15min,AgWx,beryljct,423,29MAR2021:03:30:00,34.5,12.72,36.7,41.9,41.2,43.3,39.1,36,39,34,0.317,16.3,17.2,15.4,4.056,4.7,197,9.3,6.4,0.00018,0.00026,43.8,45.8,14,0,0,.,7.82,0.00,0.00
15min,AgWx,beryljct,423,29MAR2021:03:45:00,35.4,12.72,46.1,44.8,42.0,44.8,39.5,36,39,33,0.334,17.2,17.7,15.6,6.599,5.4,200,10,7.8,0.00022,0.00031,43.6,45.7,14,0,0,.,7.82,0.00,0.00
15min,AgWx,beryljct,423,29MAR2021:04:00:00,37.1,12.71,41.4,43.9,45.0,46.0,43.9,33,35,31,0.336,17.6,18.6,16.9,2.148,5.9,200,22,11.0,0.00030,0.00040,43.4,45.6,14,0,0,.,7.82,0.00,0.00
15min,AgWx,beryljct,423,29MAR2021:04:15:00,38.0,12.71,35.7,35.4,38.9,43.4,34.9,40,47,35,0.326,16.5,17.5,15.7,1.162,3.1,342,31,6.0,0.00005,0.00010,43.2,45.6,14,0,0,.,7.82,0.00,0.00
15min,AgWx,beryljct,423,29MAR2021:04:30:00,37.2,12.7,27.8,30.4,33.7,35.7,30.4,49,52,46,0.300,16.4,17.0,15.1,0.153,3.3,354,14,5.1,0.00003,0.00007,43.0,45.5,14,0,0,.,7.83,0.00,0.00
15min,AgWx,beryljct,423,29MAR2021:04:45:00,35.5,12.7,32.8,30.8,30.8,32.0,29.2,55,58,52,0.319,16.3,17.0,14.9,0.68,0.7,353,63,2.9,-0.00017,-0.00024,42.8,45.4,14,0,0,.,7.83,0.00,0.00
15min,AgWx,beryljct,423,29MAR2021:05:00:00,33.7,12.69,27.6,29.8,30.6,32.0,28.9,56,59,53,0.315,16.7,17.7,15.7,1.82,1.0,103,60,2.5,-0.00014,-0.00019,42.7,45.3,14,0,0,.,7.83,0.00,0.00
15min,AgWx,beryljct,423,29MAR2021:05:15:00,32.5,12.68,30.4,29.3,29.8,32.6,27.5,58,62,53,0.323,16.6,18.2,15.0,2.631,2.3,330,43,5.6,-0.00005,-0.00004,42.5,45.2,14,0,0,.,7.83,0.00,0.00
15min,AgWx,beryljct,423,29MAR2021:05:30:00,31.6,12.68,31.2,32.3,31.1,33.7,27.8,55,61,51,0.339,17.0,18.9,15.3,2.499,2.9,319,17,5.9,-0.00001,0.00000,42.3,45.2,14,0,0,.,7.83,0.00,0.00
15min,AgWx,beryljct,423,29MAR2021:05:45:00,31.5,12.67,40.1,41.1,35.6,41.5,31.7,48,55,39,0.345,17.9,19.6,15.8,3.332,2.6,181,61,7.6,0.00025,0.00043,42.2,45.1,14,0,0,.,7.83,0.00,0.00
15min,AgWx,beryljct,423,29MAR2021:06:00:00,32.1,12.66,28.2,26.7,34.0,40.9,26.5,49,62,39,0.306,16.4,18.4,14.7,5.02,4.2,296,27,7.7,0.00037,0.00065,42.0,45.0,14,0,0,.,7.82,0.00,0.00
15min,AgWx,beryljct,423,29MAR2021:06:15:00,31.4,12.64,28.3,28.1,27.8,28.8,26.8,61,63,58,0.318,16.1,17.1,15.2,0.833,2.7,317,8.5,6.1,0.00016,0.00029,41.8,44.9,14,1,0,.,7.83,0.00,0.00
15min,AgWx,beryljct,423,29MAR2021:06:30:00,30.4,12.65,27.7,28.4,28.5,30.6,27.2,60,63,56,0.320,16.5,17.3,14.8,3.902,2.5,333,44,7.1,0.00017,0.00028,41.7,44.8,14,4,0,.,7.83,0.00,0.00
15min,AgWx,beryljct,423,29MAR2021:06:45:00,30.0,12.67,31.3,30.4,30.7,32.9,28.0,57,62,52,0.334,17.0,18.3,15.7,3.31,3.4,323,21,5.1,0.00030,0.00048,41.5,44.8,14,19,0,.,7.83,0.00,0.00
15min,AgWx,beryljct,423,29MAR2021:07:00:00,30.8,12.67,39.8,37.0,34.2,37.0,30.5,52,58,47,0.364,18.2,19.5,17.4,7.892,5.2,340,11,8.2,0.00063,0.00094,41.3,44.7,14,75,0,.,7.83,0.00,0.00
15min,AgWx,beryljct,423,29MAR2021:07:15:00,33.2,12.68,44.4,44.1,39.9,44.2,37.3,45,48,39,0.387,20.2,21.3,19.2,5.393,3.3,263,58,7.1,0.00079,0.00108,41.2,44.6,14,119,0,.,7.83,0.00,0.00
15min,AgWx,beryljct,423,29MAR2021:07:30:00,37.2,12.8,50.2,49.3,46.2,49.3,44.1,37,40,32,0.387,21.0,21.6,20.5,8.7,6.3,181,13,8.7,0.00137,0.00199,41.0,44.5,14,168,0,.,7.82,0.00,0.00
15min,AgWx,beryljct,423,29MAR2021:07:45:00,42.3,12.99,52.0,51.6,50.6,51.6,49.4,30,32,28,0.363,20.2,20.7,19.5,8.24,7.8,206,5.1,9.9,0.00191,0.00280,40.9,44.4,14,218,0,.,7.82,0.00,0.00
15min,AgWx,beryljct,423,29MAR2021:08:00:00,46.5,13.27,53.3,53.2,52.3,53.2,51.7,28,30,27,0.376,20.1,21.0,19.4,8.57,8.2,213,7.0,10.7,0.00224,0.00322,40.8,44.3,14,270,0,.,7.82,0.00,0.00
15min,AgWx,beryljct,423,29MAR2021:08:15:00,49.9,13.69,54.6,54.4,53.9,54.7,53.1,27,28,26,0.370,20.4,21.6,19.2,7.629,7.7,213,9.5,10.4,0.00250,0.00350,40.7,44.3,14,324,0,.,7.81,0.00,0.00
15min,AgWx,beryljct,423,29MAR2021:08:30:00,52.6,14.43,55.7,55.8,55.3,55.8,54.4,26,28,24,0.366,20.7,22.3,19.5,13.55,8.4,211,9.2,13.6,0.00287,0.00398,40.7,44.2,14,378,0,.,7.81,0.00,0.00
15min,AgWx,beryljct,423,29MAR2021:08:45:00,54.8,14.41,57.1,57.4,56.5,57.5,55.8,24,25,23,0.381,20.3,21.5,19.3,13.48,11.3,204,8.4,15.0,0.00342,0.00485,40.8,44.1,14,431,0,.,7.81,0.00,0.00
15min,AgWx,beryljct,423,29MAR2021:09:00:00,56.6,14.38,58.6,58.1,57.6,58.1,57.0,23,24,22,0.364,19.9,21.1,18.4,14.25,13.6,194,8.9,17.7,0.00389,0.00557,40.8,44.0,14,484,0,.,7.81,0.00,0.00
15min,AgWx,beryljct,423,29MAR2021:09:15:00,58.3,14.28,59.2,59.6,58.8,59.6,58.1,22,23,21,0.371,20.0,21.5,19.0,13.2,12.9,197,8.6,17.3,0.00416,0.00584,41.0,43.9,14,534,0,.,7.80,0.00,0.00
15min,AgWx,beryljct,423,29MAR2021:09:30:00,59.7,14.26,59.1,59.4,59.3,59.6,58.8,21,22,20,0.362,19.4,20.7,18.1,20.06,14.9,193,9.3,20.1,0.00454,0.00643,41.1,43.9,14,581,0,.,7.80,0.00,0.00
15min,AgWx,beryljct,423,29MAR2021:09:45:00,60.8,14.23,60.0,60.2,60.0,60.7,59.0,21,22,20,0.364,19.7,21.2,18.8,13.33,14.5,185,11,19.1,0.00478,0.00669,41.4,43.8,14,626,0,.,7.80,0.00,0.00
15min,AgWx,beryljct,423,29MAR2021:10:00:00,61.9,14.23,62.0,61.5,61.2,61.9,60.2,20,21,18,0.387,19.8,21.2,18.2,11.18,14.2,188,13,21.1,0.00505,0.00700,41.6,43.8,14,668,0,.,7.80,0.00,0.00
15min,AgWx,beryljct,423,29MAR2021:10:15:00,63.1,14.19,61.8,62.9,62.5,63.6,61.6,19,21,17,0.339,19.8,21.4,17.7,14.16,13.0,191,14,19.6,0.00528,0.00721,41.9,43.7,14,707,0,.,7.80,0.00,0.00
15min,AgWx,beryljct,423,29MAR2021:10:30:00,63.9,14.21,63.0,63.0,62.5,63.2,61.9,19,20,17,0.350,19.1,21.1,17.5,16.33,13.7,207,15,23.8,0.00550,0.00751,42.3,43.6,14,742,0,.,7.79,0.00,0.00
15min,AgWx,beryljct,423,29MAR2021:10:45:00,64.6,13.8,62.8,63.4,63.2,63.9,62.3,18,18,17,0.344,18.4,19.8,17.3,14.51,13.9,198,13,19.3,0.00575,0.00784,42.7,43.6,14,775,0,.,7.79,0.00,0.00
15min,AgWx,beryljct,423,29MAR2021:11:00:00,65.1,13.78,63.2,64.5,63.5,64.7,62.4,18,19,17,0.351,18.7,20.6,17.1,19.2,13.5,207,15,19.8,0.00588,0.00795,43.1,43.5,14,805,0,.,7.79,0.00,0.00
15min,AgWx,beryljct,423,29MAR2021:11:15:00,65.7,13.78,65.7,64.6,64.2,65.2,63.4,17,18,15,0.355,18.4,20.5,16.5,12.14,14.5,202,13,20.4,0.00614,0.00834,43.5,43.5,14,831,0,.,7.79,0.00,0.00
15min,AgWx,beryljct,423,29MAR2021:11:30:00,66.5,13.74,63.9,64.4,65.0,66.0,64.2,16,17,14,0.325,17.4,19.2,15.1,10.06,11.6,228,23,19.1,0.00616,0.00815,44.0,43.5,14,853,0,.,7.79,0.00,0.00
15min,AgWx,beryljct,423,29MAR2021:11:45:00,67.0,13.76,64.5,65.4,65.3,66.4,64.1,16,19,15,0.346,18.6,21.6,15.9,14.84,13.4,225,17,19.6,0.00635,0.00852,44.5,43.5,14,870,0,.,7.79,0.00,0.00
15min,AgWx,beryljct,423,29MAR2021:12:00:00,67.5,13.78,68.1,65.6,65.9,67.3,64.6,16,17,14,0.338,18.5,21.1,15.6,14.18,14.9,224,16,24.8,0.00657,0.00892,45.0,43.5,14,882,0,.,7.79,0.00,0.00
15min,AgWx,beryljct,423,29MAR2021:12:15:00,67.9,13.76,66.0,66.1,65.6,66.3,64.6,16,17,15,0.363,18.3,20.2,16.1,18.63,15.0,224,13,22.8,0.00658,0.00892,45.5,43.5,14,892,0,.,7.79,0.00,0.00
15min,AgWx,beryljct,423,29MAR2021:12:30:00,68.0,13.72,65.6,66.6,66.0,67.8,64.9,17,18,15,0.357,19.4,22.6,17.1,17.21,15.3,216,12,23.4,0.00664,0.00902,46.0,43.5,14,896,0,.,7.79,0.00,0.00
15min,AgWx,beryljct,423,29MAR2021:12:45:00,68.2,13.73,66.9,66.4,66.2,66.9,65.0,17,18,16,0.381,19.9,21.6,18.2,15.83,15.7,200,14,22.3,0.00669,0.00911,46.5,43.6,14,898,0,.,7.78,0.00,0.00
15min,AgWx,beryljct,423,29MAR2021:13:00:00,68.3,13.8,65.4,65.4,65.7,66.6,64.8,17,18,16,0.379,20.1,21.0,18.8,18.66,16.8,190,14,27.4,0.00667,0.00914,47.1,43.6,14,896,0,.,7.78,0.00,0.00
15min,AgWx,beryljct,423,29MAR2021:13:15:00,68.6,13.73,66.6,66.3,66.3,67.2,65.3,17,19,16,0.370,20.5,22.2,18.6,12.96,15.3,205,16,22.6,0.00664,0.00902,47.6,43.7,14,891,0,.,7.79,0.00,0.00
15min,AgWx,beryljct,423,29MAR2021:13:30:00,68.8,13.71,64.4,65.6,65.9,67.2,65.2,18,19,17,0.383,20.7,22.7,18.9,18.66,17.3,211,14,25.9,0.00663,0.00914,48.1,43.7,14,880,0,.,7.79,0.00,0.00
15min,AgWx,beryljct,423,29MAR2021:13:45:00,69.1,13.68,67.0,66.9,66.4,67.6,64.9,18,19,17,0.397,21.5,23.2,19.7,21.37,16.5,201,13,26.1,0.00655,0.00900,48.6,43.8,14,864,0,.,7.79,0.00,0.00
15min,AgWx,beryljct,423,29MAR2021:14:00:00,69.5,13.69,67.1,67.0,66.5,67.6,65.4,18,19,17,0.402,21.7,22.9,20.4,16.05,17.4,190,13,25.2,0.00652,0.00905,49.1,43.9,14,845,0,.,7.79,0.00,0.00
15min,AgWx,beryljct,423,29MAR2021:14:15:00,69.9,13.64,66.8,66.9,66.9,68.2,66.0,18,19,17,0.373,21.7,23.5,20.1,17.6,18.1,197,14,24.4,0.00652,0.00912,49.6,44.0,14,826,0,.,7.79,0.00,0.00
15min,AgWx,beryljct,423,29MAR2021:14:30:00,70.2,13.64,65.2,65.6,66.9,68.0,65.6,17,18,16,0.371,21.3,22.9,19.9,18.04,16.6,199,15,22.1,0.00632,0.00880,50.1,44.1,14,801,0,.,7.79,0.00,0.00
15min,AgWx,beryljct,423,29MAR2021:14:45:00,70.3,13.67,66.7,66.9,66.5,67.5,65.6,17,19,16,0.382,20.9,22.7,19.3,16.7,14.8,196,18,22.9,0.00602,0.00831,50.5,44.2,14,771,0,.,7.79,0.00,0.00
15min,AgWx,beryljct,423,29MAR2021:15:00:00,70.4,13.63,67.1,66.5,66.9,67.8,66.2,17,19,16,0.382,20.9,23.4,19.5,12.91,14.3,214,12,21.2,0.00568,0.00794,50.9,44.4,14,704,0,.,7.79,0.00,0.00
15min,AgWx,beryljct,423,29MAR2021:15:15:00,70.6,13.63,68.4,66.4,67.0,67.7,66.2,17,19,14,0.310,20.9,23.2,15.8,5.656,13.2,207,29,23.6,0.00562,0.00778,51.3,44.5,14,707,0,.,7.78,0.00,0.00
15min,AgWx,beryljct,423,29MAR2021:15:30:00,71.1,13.65,67.8,66.9,68.3,69.6,66.7,12,18,9.0,0.398,12.7,21.6,7.1,9.97,12.1,244,27,23.0,0.00553,0.00771,51.7,44.7,14,669,0,.,7.78,0.00,0.00
15min,AgWx,beryljct,423,29MAR2021:15:45:00,71.6,13.7,65.6,66.6,68.3,69.7,66.6,12,17,9.4,0.341,12.9,20.3,7.9,9.69,10.6,261,44,20.2,0.00504,0.00703,52.0,44.8,14,608,0,.,7.78,0.00,0.00
15min,AgWx,beryljct,423,29MAR2021:16:00:00,71.9,13.6,67.1,67.2,67.8,69.3,66.4,15,17,9.9,0.367,17.6,21.2,9.9,10.3,11.4,233,32,18.3,0.00489,0.00689,52.4,44.9,14,582,0,.,7.79,0.00,0.00
15min,AgWx,beryljct,423,29MAR2021:16:15:00,71.8,13.59,67.7,67.2,68.1,69.3,66.8,13,16,9.7,0.337,14.5,19.7,9.3,10.65,13.6,244,28,28.2,0.00497,0.00725,52.7,45.1,14,537,0,.,7.78,0.00,0.00
15min,AgWx,beryljct,423,29MAR2021:16:30:00,71.6,13.6,67.5,66.8,67.7,68.9,66.8,14,16,9.5,0.342,16.1,19.6,8.7,5.963,7.9,214,41,15.5,0.00394,0.00548,52.9,45.3,14,493,0,.,7.78,0.00,0.00
15min,AgWx,beryljct,423,29MAR2021:16:45:00,71.7,13.62,68.2,68.4,68.0,68.7,66.5,11,17,8.6,0.228,11.4,20.5,6.4,4.275,8.6,285,61,18.0,0.00385,0.00551,53.1,45.4,14,454,0,.,7.78,0.00,0.00
15min,AgWx,beryljct,423,29MAR2021:17:00:00,69.8,13.7,56.2,56.8,59.2,68.7,56.4,20,23,9.8,0.355,18.3,19.5,9.2,25.12,19.8,51,20,26.8,0.00390,0.00610,53.3,45.6,14,382,0,.,7.79,0.00,0.00
15min,AgWx,beryljct,423,29MAR2021:17:15:00,66.0,13.82,54.5,54.6,55.2,56.7,54.6,24,24,23,0.350,18.7,19.4,18.3,29.92,23.7,58,8.7,29.9,0.00339,0.00548,53.5,45.8,14,306,0,.,7.80,0.00,0.00
15min,AgWx,beryljct,423,29MAR2021:17:30:00,62.8,13.87,52.9,52.8,53.9,54.8,52.8,25,25,24,0.341,18.5,19.1,17.9,25.1,21.9,57,8.4,28.4,0.00298,0.00490,53.6,45.9,14,248,0,.,7.80,0.00,0.00
15min,AgWx,beryljct,423,29MAR2021:17:45:00,60.3,13.43,51.8,51.8,52.4,52.8,51.8,25,26,25,0.335,18.0,18.4,17.4,21.88,21.5,59,9.0,28.4,0.00261,0.00441,53.6,46.1,14,184,0,.,7.80,0.00,0.00
15min,AgWx,beryljct,423,29MAR2021:18:00:00,58.2,13.25,50.5,50.5,51.1,51.8,50.5,26,27,26,0.330,17.5,18.1,17.2,18.9,20.0,55,9.2,26.3,0.00098,0.00110,53.6,46.2,14,143,0,.,7.80,0.00,0.00
15min,AgWx,beryljct,423,29MAR2021:18:15:00,56.2,13.15,49.2,49.1,49.8,50.5,49.1,26,27,26,0.311,16.4,17.4,15.8,18.57,20.2,49,8.5,26.0,0.00090,0.00101,53.5,46.4,14,89,0,.,7.80,0.00,0.00
15min,AgWx,beryljct,423,29MAR2021:18:30:00,54.2,13.07,47.2,47.2,48.2,49.2,47.2,27,28,26,0.308,15.8,16.2,15.5,14.95,17.5,56,8.6,22.6,0.00078,0.00089,53.4,46.5,14,52,0,.,7.80,0.00,0.00
15min,AgWx,beryljct,423,29MAR2021:18:45:00,52.3,13.04,45.7,45.8,46.4,47.2,45.8,28,29,28,0.302,15.4,15.9,15.0,12.58,16.1,56,7.4,21.7,0.00068,0.00078,53.2,46.7,14,24,0,.,7.80,0.00,0.00
15min,AgWx,beryljct,423,29MAR2021:19:00:00,50.6,13,44.7,44.6,45.1,45.8,44.6,29,30,29,0.296,14.9,15.3,14.6,15.32,15.9,57,7.4,20.4,0.00063,0.00072,53.0,46.8,14,7,0,.,7.80,0.00,0.00
15min,AgWx,beryljct,423,29MAR2021:19:15:00,49.1,12.97,43.3,43.4,44.0,44.6,43.4,30,30,30,0.291,14.5,14.8,14.3,10.61,14.1,59,7.8,19.8,0.00056,0.00066,52.8,46.9,14,1,0,.,7.80,0.00,0.00
15min,AgWx,beryljct,423,29MAR2021:19:30:00,47.7,12.96,42.2,42.1,42.7,43.3,42.1,31,32,30,0.292,14.4,14.6,14.2,7.892,10.7,59,9.8,14.1,0.00046,0.00055,52.5,47.1,14,0,0,.,7.80,0.00,0.00
15min,AgWx,beryljct,423,29MAR2021:19:45:00,46.6,12.95,41.7,41.5,41.9,42.2,41.5,32,32,32,0.285,14.2,14.5,13.9,11.73,11.0,58,7.3,14.6,0.00044,0.00053,52.2,47.2,14,0,0,.,7.80,0.00,0.00
15min,AgWx,beryljct,423,29MAR2021:20:00:00,45.6,12.94,41.0,41.0,41.3,41.6,41.0,32,32,32,0.281,13.7,14.0,13.5,10.85,11.9,61,8.1,14.9,0.00046,0.00054,51.9,47.3,14,0,0,.,7.80,0.00,0.00
15min,AgWx,beryljct,423,29MAR2021:20:15:00,44.7,12.92,40.1,40.0,40.6,41.0,39.9,33,34,32,0.281,13.5,13.7,13.3,9.62,10.9,59,8.3,14.5,0.00042,0.00051,51.7,47.4,14,0,0,.,7.80,0.00,0.00
15min,AgWx,beryljct,423,29MAR2021:20:30:00,43.9,12.92,39.7,39.4,39.6,40.0,39.2,34,35,33,0.278,13.4,13.7,13.1,10.26,10.1,58,9.1,13.6,0.00038,0.00047,51.3,47.4,14,0,0,.,7.81,0.00,0.00
15min,AgWx,beryljct,423,29MAR2021:20:45:00,43.1,12.89,38.7,38.3,38.9,39.3,38.3,34,34,34,0.269,12.8,13.3,12.5,11.86,10.4,48,7.4,13.4,0.00038,0.00046,51.0,47.5,14,0,0,.,7.81,0.00,0.00
15min,AgWx,beryljct,423,29MAR2021:21:00:00,42.3,12.9,38.4,38.3,38.4,38.5,38.2,33,34,33,0.258,12.0,12.6,11.5,9.51,12.7,32,7.6,17.1,0.00042,0.00050,50.8,47.6,14,0,0,.,7.81,0.00,0.00
15min,AgWx,beryljct,423,29MAR2021:21:15:00,41.7,12.89,38.3,37.9,38.1,38.4,37.8,32,33,32,0.249,11.1,11.6,10.7,16,11.5,34,7.3,16.0,0.00040,0.00048,50.4,47.6,14,0,0,.,7.81,0.00,0.00
15min,AgWx,beryljct,423,29MAR2021:21:30:00,41.2,12.89,36.6,36.8,37.6,37.9,36.8,32,33,31,0.247,10.4,10.8,10.2,5.875,11.3,40,15,16.0,0.00040,0.00047,50.2,47.6,14,0,0,.,7.81,0.00,0.00
15min,AgWx,beryljct,423,29MAR2021:21:45:00,40.4,12.88,35.7,35.9,36.1,36.7,35.7,35,36,34,0.258,11.4,11.7,10.7,5.13,6.4,57,7.6,8.5,0.00023,0.00030,49.9,47.7,14,0,0,.,7.81,0.00,0.00
15min,AgWx,beryljct,423,29MAR2021:22:00:00,39.7,12.85,36.2,35.7,35.6,35.9,35.3,36,37,35,0.246,11.3,11.7,10.5,8.46,7.4,49,8.0,10.4,0.00026,0.00033,49.6,47.7,14,0,0,.,7.81,0.00,0.00
15min,AgWx,beryljct,423,29MAR2021:22:15:00,39.2,12.86,35.5,35.4,35.6,35.9,35.2,34,35,34,0.237,10.2,10.6,9.7,8.57,8.4,49,6.9,11.7,0.00029,0.00036,49.3,47.7,14,0,0,.,7.81,0.00,0.00
15min,AgWx,beryljct,423,29MAR2021:22:30:00,38.7,12.85,35.5,34.9,35.4,35.9,34.9,33,34,32,0.224,8.9,9.8,8.5,10.06,9.9,48,12,13.3,0.00034,0.00041,49.0,47.7,14,0,0,.,7.81,0.00,0.00
15min,AgWx,beryljct,423,29MAR2021:22:45:00,38.3,12.85,35.0,34.9,34.9,35.2,34.7,32,33,30,0.213,7.8,8.5,7.2,9.03,9.9,38,7.8,12.9,0.00034,0.00041,48.8,47.7,14,0,0,.,7.81,0.00,0.00
15min,AgWx,beryljct,423,29MAR2021:23:00:00,37.9,12.85,35.3,35.0,34.9,35.0,34.7,30,31,30,0.203,6.8,7.5,6.3,14.25,11.9,31,7.5,16.4,0.00038,0.00045,48.5,47.7,14,0,0,.,7.81,0.00,0.00
15min,AgWx,beryljct,423,29MAR2021:23:15:00,37.7,12.84,35.1,34.7,34.9,35.3,34.6,29,30,28,0.199,6.0,6.3,5.6,12.25,12.7,36,7.0,18.2,0.00041,0.00047,48.2,47.7,14,0,0,.,7.81,0.00,0.00
15min,AgWx,beryljct,423,29MAR2021:23:30:00,37.3,12.82,34.5,34.0,34.3,34.7,33.9,29,30,29,0.195,5.6,5.8,5.4,11.71,11.5,37,7.0,15.2,0.00038,0.00044,48.0,47.6,14,0,0,.,7.81,0.00,0.00
15min,AgWx,bigpiney,439,29MAR2021:00:00:00,37.4,12.43,34.6,34.8,35.7,36.4,34.8,52,54,51,0.367,19.9,20.2,19.8,9.34,9.3,161,7.4,11.0,0.00020,0.00025,31.4,31.5,11,0,0,0.0,0.41,0.00,0.00
15min,AgWx,bigpiney,439,29MAR2021:00:15:00,37.1,12.43,34.2,34.2,34.7,35.0,34.1,55,56,54,0.375,20.0,20.2,19.8,8.81,9.9,156,7.0,12.1,0.00019,0.00024,31.4,31.5,11,0,0,0.0,0.41,0.00,0.00
15min,AgWx,bigpiney,439,29MAR2021:00:30:00,36.7,12.42,33.6,33.4,33.8,34.2,33.1,57,58,56,0.375,20.2,20.4,20.0,9.03,9.4,157,6.3,11.8,0.00016,0.00020,31.4,31.5,11,0,0,0.0,0.41,0.00,0.00
15min,AgWx,bigpiney,439,29MAR2021:00:45:00,36.3,12.42,34.5,34.1,33.6,34.2,33.3,58,58,56,0.374,20.2,20.3,20.0,8.83,10.5,159,6.2,13.9,0.00017,0.00021,31.4,31.5,11,0,0,0.0,0.41,0.00,0.00
15min,AgWx,bigpiney,439,29MAR2021:01:00:00,36.0,12.42,34.5,34.3,34.6,34.8,34.1,54,56,54,0.364,19.8,20.1,19.4,9.8,10.0,158,6.7,13.1,0.00019,0.00024,31.4,31.5,11,0,0,0.0,0.41,0.00,0.00
15min,AgWx,bigpiney,439,29MAR2021:01:15:00,35.9,12.4,33.7,33.6,34.1,34.5,33.6,55,56,54,0.362,19.5,19.7,19.4,9.82,9.2,163,8.0,10.8,0.00018,0.00022,31.4,31.5,11,0,0,0.0,0.41,0.00,0.00
15min,AgWx,bigpiney,439,29MAR2021:01:30:00,35.7,12.41,34.2,33.6,33.5,33.7,33.1,56,57,56,0.364,19.4,19.6,19.3,12.76,10.3,166,6.9,14.3,0.00018,0.00022,31.4,31.6,11,0,0,0.0,0.41,0.00,0.00
15min,AgWx,bigpiney,439,29MAR2021:01:45:00,35.4,12.4,35.1,34.6,34.0,34.6,33.1,55,56,53,0.359,19.4,19.7,19.1,10.22,10.3,164,9.5,14.1,0.00019,0.00023,31.4,31.5,11,0,0,0.0,0.41,0.00,0.00
15min,AgWx,bigpiney,439,29MAR2021:02:00:00,35.4,12.4,34.4,34.5,34.6,35.3,34.0,53,54,51,0.352,19.0,19.2,18.8,6.555,8.5,158,6.1,13.0,0.00018,0.00022,31.4,31.6,11,0,0,0.0,0.41,0.00,0.00
15min,AgWx,bigpiney,439,29MAR2021:02:15:00,35.3,12.4,33.8,33.3,34.1,34.5,33.1,53,55,51,0.349,18.6,18.8,18.3,6.796,7.4,159,7.3,9.2,0.00015,0.00019,31.4,31.5,11,0,0,0.0,0.41,0.00,0.00
15min,AgWx,bigpiney,439,29MAR2021:02:30:00,35.1,12.4,34.0,34.0,34.0,35.4,33.0,52,54,49,0.340,18.3,18.8,17.8,4.494,6.4,172,15,10.8,0.00013,0.00017,31.4,31.5,11,0,0,0.0,0.41,0.00,0.00
15min,AgWx,bigpiney,439,29MAR2021:02:45:00,34.9,12.4,37.4,36.8,35.1,36.8,33.3,49,52,46,0.342,17.8,18.1,17.2,9.25,7.0,195,13,13.4,0.00016,0.00021,31.4,31.5,11,0,0,0.0,0.41,0.00,0.00
15min,AgWx,bigpiney,439,29MAR2021:03:00:00,35.1,12.39,39.7,39.5,38.1,39.6,36.8,44,46,40,0.333,17.8,18.3,17.4,9.1,9.4,212,11,12.9,0.00027,0.00034,31.4,31.5,11,0,0,0.0,0.41,0.00,0.00
15min,AgWx,bigpiney,439,29MAR2021:03:15:00,36.0,12.38,39.9,39.8,39.5,39.8,39.0,40,41,39,0.329,17.3,17.5,17.0,10.35,10.6,215,6.8,14.5,0.00034,0.00041,31.4,31.5,11,0,0,0.0,0.41,0.00,0.00
15min,AgWx,bigpiney,439,29MAR2021:03:30:00,37.0,12.37,40.9,41.0,40.4,41.0,39.5,38,40,37,0.324,16.8,17.3,16.4,12.12,12.6,222,7.7,19.9,0.00040,0.00047,31.4,31.6,11,0,0,0.0,0.41,0.00,0.00
15min,AgWx,bigpiney,439,29MAR2021:03:45:00,38.1,12.39,43.0,42.8,41.9,42.8,40.9,35,37,34,0.315,16.4,16.9,16.0,19.38,17.5,231,9.4,24.9,0.00052,0.00059,31.4,31.5,11,0,0,0.0,0.41,0.00,0.00
15min,AgWx,bigpiney,439,29MAR2021:04:00:00,39.3,12.38,42.5,42.8,42.9,43.2,42.6,34,34,33,0.315,16.2,16.5,16.0,15.89,19.8,235,8.1,26.4,0.00058,0.00065,31.4,31.5,11,0,0,0.0,0.41,0.00,0.00
15min,AgWx,bigpiney,439,29MAR2021:04:15:00,40.4,12.38,43.7,43.1,43.0,43.2,42.7,33,34,32,0.304,16.0,16.4,15.4,28.17,21.6,239,7.9,28.2,0.00060,0.00067,31.4,31.6,11,0,0,0.0,0.41,0.00,0.00
15min,AgWx,bigpiney,439,29MAR2021:04:30:00,41.2,12.37,44.6,44.0,43.6,44.2,43.1,31,33,30,0.297,15.2,15.7,14.7,31.17,24.8,238,8.1,33.3,0.00066,0.00073,31.4,31.5,11,0,0,0.0,0.41,0.00,0.00
15min,AgWx,bigpiney,439,29MAR2021:04:45:00,42.0,12.38,43.3,43.4,44.1,44.7,43.4,30,31,29,0.297,14.6,15.2,14.1,18.66,24.5,235,7.6,34.5,0.00069,0.00076,31.4,31.5,11,0,0,0.0,0.41,0.00,0.00
15min,AgWx,bigpiney,439,29MAR2021:05:00:00,42.4,12.37,43.1,43.1,43.4,43.7,43.0,31,31,30,0.295,14.7,15.0,14.4,18.94,20.8,233,8.5,30.8,0.00062,0.00070,31.4,31.6,11,0,0,0.0,0.41,0.00,0.00
15min,AgWx,bigpiney,439,29MAR2021:05:15:00,42.6,12.37,43.0,43.1,43.0,43.3,42.7,31,31,30,0.282,14.1,14.5,13.5,17.52,18.0,238,8.1,24.8,0.00059,0.00067,31.4,31.5,11,0,0,0.0,0.41,0.00,0.00
15min,AgWx,bigpiney,439,29MAR2021:05:30:00,42.7,12.36,43.1,43.4,43.4,43.8,42.8,29,30,28,0.277,13.3,13.9,12.8,15.59,19.9,241,10,29.4,0.00063,0.00071,31.4,31.6,11,0,0,0.0,0.41,0.00,0.00
15min,AgWx,bigpiney,439,29MAR2021:05:45:00,42.9,12.37,44.3,43.9,43.9,44.7,43.3,28,29,27,0.271,12.8,13.3,12.3,28.08,23.6,243,9.1,35.2,0.00069,0.00077,31.4,31.6,11,0,0,0.0,0.41,0.00,0.00
15min,AgWx,bigpiney,439,29MAR2021:06:00:00,43.2,12.35,43.0,43.0,43.5,44.0,43.0,29,29,28,0.277,13.0,13.3,12.6,20.54,22.9,250,9.2,29.8,0.00067,0.00075,31.4,31.5,11,1,0,0.0,0.41,0.00,0.00
15min,AgWx,bigpiney,439,29MAR2021:06:15:00,43.1,12.39,42.3,42.1,42.4,43.1,42.0,31,31,29,0.285,13.7,14.1,13.3,21.53,20.0,247,9.0,26.3,0.00060,0.00068,31.4,31.5,11,8,0,0.0,0.41,0.00,0.00
15min,AgWx,bigpiney,439,29MAR2021:06:30:00,43.0,12.43,42.4,42.4,42.5,42.7,42.2,31,32,31,0.296,14.2,14.8,13.7,24.49,27.4,250,8.5,38.7,0.00168,0.00306,31.4,31.6,11,32,0,0.0,0.41,0.00,0.00
15min,AgWx,bigpiney,439,29MAR2021:06:45:00,43.1,12.5,42.3,42.1,42.2,42.5,41.9,33,34,32,0.306,14.9,15.5,14.4,26.33,25.9,247,10,35.3,0.00168,0.00300,31.4,31.6,11,73,0,0.0,0.41,0.00,0.00
15min,AgWx,bigpiney,439,29MAR2021:07:00:00,43.2,12.58,41.6,41.4,41.8,42.3,41.3,35,36,33,0.319,15.9,16.5,15.3,24.71,24.5,255,8.3,33.8,0.00161,0.00284,31.4,31.5,11,83,0,0.0,0.41,0.00,0.00
15min,AgWx,bigpiney,439,29MAR2021:07:15:00,43.2,13.01,40.9,40.6,40.8,41.4,40.5,38,39,36,0.335,17.3,17.8,16.5,21.33,22.3,264,8.9,34.7,0.00158,0.00267,31.4,31.5,11,156,0,0.0,0.41,0.00,0.00
15min,AgWx,bigpiney,439,29MAR2021:07:30:00,43.1,13.09,37.6,37.8,39.6,40.7,37.8,42,48,39,0.368,18.3,19.8,17.7,20.61,24.9,259,9.9,30.7,0.00157,0.00262,31.4,31.6,11,140,0,0.0,0.41,0.00,0.00
15min,AgWx,bigpiney,439,29MAR2021:07:45:00,42.5,13.72,38.6,37.8,37.2,37.8,36.7,52,53,48,0.394,21.0,21.6,19.9,18.74,22.4,260,6.9,29.2,0.00133,0.00212,31.4,31.6,11,210,0,0.0,0.41,0.00,0.00
15min,AgWx,bigpiney,439,29MAR2021:08:00:00,42.3,13.7,35.1,35.4,37.9,38.7,35.4,52,61,49,0.428,21.6,23.4,20.7,25.93,25.7,253,9.5,33.6,0.00162,0.00248,31.4,31.6,11,315,0,0.0,0.41,0.00,0.00
15min,AgWx,bigpiney,439,29MAR2021:08:15:00,41.7,14.11,34.5,34.5,34.4,35.4,33.8,67,71,61,0.449,24.6,25.6,23.4,23.46,22.5,253,8.3,32.2,0.00112,0.00163,31.4,31.5,11,288,0,0.0,0.41,0.00,0.00
15min,AgWx,bigpiney,439,29MAR2021:08:30:00,40.8,13.64,31.8,31.7,32.8,34.5,31.7,76,83,67,0.502,26.1,27.4,24.6,12.41,16.5,256,9.0,26.7,0.00086,0.00118,31.4,31.4,11,232,0,0.0,0.41,0.00,0.00